Regional Weather Roundup
Issued by NWS

Home | Current Version | Previous Version | Text Only | Print | Product List | Glossary On
Versions: 1 2 3 4 5 6 7 8 9 10 11 12 13 14 15 16 17 18 19 20 21 22 23 24 25 26 27 28 29 30 31 32 33 34 35 36 37 38 39 40 41 42 43 44 45 46 47 48 49 50
000
ASUS42 KFFC 230003
RWRGA
WEATHER ROUNDUP FOR GEORGIA
NATIONAL WEATHER SERVICE PEACHTREE CITY GA
800 PM EDT FRI MAY 22 2015

NOTE: "FAIR" INDICATES FEW OR NO CLOUDS BELOW 12,000 FEET WITH NO
SIGNIFICANT WEATHER AND/OR OBSTRUCTIONS TO VISIBILITY.

* = USE WITH CAUTION. THE STATIONS MARKED WITH AN ASTERISK MAY NOT
REPORT WEATHER SUCH AS PRECIPITATION, FOG, OR THUNDER AND ARE NOT
QUALITY CONTROLLED BY NWS.

THE REMARK "TC" DENOTES TEMPERATURE READING IN DEGREES CELSIUS.

GAZ001>058-230100-
NORTH GEORGIA

CITY           SKY/WX    TMP DP  RH WIND       PRES   REMARKS
ATLANTA        PTCLDY    76  49  38 NE7       30.20R
6HR MIN TEMP:  72; 6HR MAX TEMP:  78;

ATHENS         CLEAR     74  49  41 E3        30.20R
6HR MIN TEMP:  74; 6HR MAX TEMP:  80;

CHAMBLEE       CLEAR     75  50  41 CALM      30.20R
6HR MIN TEMP:  73; 6HR MAX TEMP:  78;

PEACHTREE CITY CLEAR     77  51  40 E3        30.20R
6HR MIN TEMP:  74; 6HR MAX TEMP:  80;

ROME           CLEAR     73  46  38 N6        30.21R
6HR MIN TEMP:  70; 6HR MAX TEMP:  77;

WEST ATLANTA   CLEAR     76  52  43 N3        30.20R
6HR MIN TEMP:  73; 6HR MAX TEMP:  78;

GAINESVILLE    CLEAR     73  51  46 VRB5      30.23R
6HR MIN TEMP:  71; 6HR MAX TEMP:  77;

CARTERSVILLE   CLEAR     71  49  45 NW3       30.22R
6HR MIN TEMP:  71; 6HR MAX TEMP:  77;



CITY           SKY/WX    TMP DP  RH WIND       PRES   REMARKS
DALTON*        CLEAR     70  46  43 N6        30.22S
LAWRENCEVILLE* CLEAR     75  50  41 CALM      30.19R
KENNESAW*      CLEAR     73  54  49 NW7       30.22R
BLAIRSVILLE*     N/A     67   5   8 CALM      30.25R
$$

GAZ059>098-102>109-230100-
CENTRAL GEORGIA

CITY           SKY/WX    TMP DP  RH WIND       PRES   REMARKS
AUGUSTA-BUSH   CLEAR     76  52  43 N7        30.18R
6HR MIN TEMP:  76; 6HR MAX TEMP:  81;

AUGUSTA-DANIEL CLEAR     77  50  38 N6        30.20R
6HR MIN TEMP:  76; 6HR MAX TEMP:  81;

COLUMBUS       CLEAR     80  49  33 NE6       30.16R
6HR MIN TEMP:  75; 6HR MAX TEMP:  82;

MACON          CLEAR     77  54  44 E5        30.17R
6HR MIN TEMP:  77; 6HR MAX TEMP:  82;

ROBINS AFB     CLEAR     77  56  49 E3        30.17R


CITY           SKY/WX    TMP DP  RH WIND       PRES   REMARKS
LAGRANGE*      CLEAR     79  59  50 CALM      30.19R
SYLVANIA*      CLEAR     78  58  51 NE5       30.20R
MILLEDGEVILLE* CLEAR     77  55  47 CALM      30.19R
$$

GAZ099>101-110>166-230100-
SOUTH GEORGIA

CITY           SKY/WX    TMP DP  RH WIND       PRES   REMARKS
SAVANNAH       MOCLDY    73  60  63 SE9       30.18R
6HR MIN TEMP:  73; 6HR MAX TEMP:  81;

VALDOSTA       CLEAR     81  48  32 N6        30.13R
6HR MIN TEMP:  81; 6HR MAX TEMP:  86;

ALMA           CLEAR     79  55  43 N3        30.14R
6HR MIN TEMP:  77; 6HR MAX TEMP:  84;

FT STEWART     CLEAR     73  61  65 E5        30.16R
ALBANY         CLEAR     81  48  31 N7        30.17R
HUNTER AFB     CLEAR     72  61  68 E10       30.16R
MOODY AFB      PTCLDY    80  54  40 N5        30.13R
BRUNSWICK      CLEAR     73  61  64 NE9       30.18R


CITY           SKY/WX    TMP DP  RH WIND       PRES   REMARKS
BAINBRIDGE*    CLEAR     81  50  34 N6        30.15R
MOULTRIE*      CLEAR     81  48  32 CALM      30.15R
VIDALIA*       CLEAR     79  59  50 N5        30.17R
WAYCROSS*      CLEAR     79  67  66 SE12      30.15R
DOUGLAS*       CLEAR     81  50  34 E5        30.16R
$$



USA.gov is the U.S. government's official web portal to all federal, state and local government web resources and services.